User: anonymous   Login
Location: Unspecified
(0.0000°N, 0.0000°E)
Time: 14:46:11
(UTC+00:00)
Language:

FREEDOM - Orbit

View from above orbital plane
View from above orbital plane
View from above satellite
View from above satellite

Ground track
Ground track

The orbit data is extracted from the following two-line orbital elements,

1 41932U 98067KU  17202.42461636 +.00008057 +00000-0 +10395-3 0  9994
2 41932 051.6391 223.0361 0006342 038.0723 322.0717 15.59984228028882
Epoch (UTC): 21 July 2017 10:11:26
Eccentricity: 0.0006342
inclination: 51.6391°
perigee height: 383 km
apogee height: 392 km
right ascension of ascending node: 223.0361°
argument of perigee: 38.0723°
revolutions per day: 15.59984228
mean anomaly at epoch: 322.0717°
orbit number at epoch: 2888

The dashed part of the orbit path shows where the satellite is in the earth's shadow,  

DLR